Location: St. Louis
(38.6270°N, 90.1994°W)
Time: 00:54:07
(UTC-06:00)

Courier 1B Rocket - Pass Details

Date: 02 December 2021
Orbit: 920 x 1202 km, 28.2° (Epoch: 16 January)

Event Time Altitude Azimuth Distance (km) Brightness Sun altitude
Rises 00:31:52 0° 245° (WSW) 3,570 - -71.1°
Reaches altitude 10° 00:34:47 10° 235° (SW) 2,611 - -70.8°
Maximum altitude 00:40:09 31° 175° (S) 1,555 - -70.2°
Drops below altitude 10° 00:45:33 10° 115° (ESE) 2,624 - -69.6°
Sets 00:48:29 0° 105° (ESE) 3,591 - -69.2°
